Weather History for KJKJ - October, 2013

Change the Weather History Date:

Wednesday, October 2, 2013

  Actual Average (KFAR) Record (KFAR)
Temperature  
Mean Temperature 54 °F 52 °F  
Max Temperature 64 °F 63 °F 90 °F (1897)
Min Temperature 44 °F 41 °F 18 °F (1883)
Degree Days  
Heating Degree Days 11 13  
Month to date heating degree days 26  
Since 1 July heating degree days 296  
Cooling Degree Days 0 0  
Month to date cooling degree days 0  
Year to date cooling degree days 548  
Growing Degree Days 4 (Base 50)    
Moisture  
Dew Point 46 °F    
Average Humidity 77    
Maximum Humidity 100    
Minimum Humidity 42    
Precipitation  
Precipitation 0.00 in 0.09 in 0.80 in (1941)
Month to date precipitation 0.17  
Year to date precipitation 18.80  
Snow  
Snow 0.00 in 0.00 in 1.00 in (1950)
Month to date snowfall 0.0  
Since 1 July snowfall 0.0  
Since 1 September snowfall 0.0  
Snow Depth -    
Sea Level Pressure  
Sea Level Pressure 29.97 in    
Wind  
Wind Speed 6 mph (ESE)    
Max Wind Speed 17 mph    
Max Gust Speed 22 mph    
Visibility 10 miles    
Events Rain    
T = Trace of Precipitation, MM = Missing Value Source: NWS Daily Summary

Daily Weather History Graph

Daily Weather History Graph

Search for Another Location

Airport or City:

Trip Planner

Search our weather history database for the weather conditions in past years. The results will help you decide how hot, cold, wet, or windy it might be!

Date:

Astronomy

Oct. 02, 2013 Rise Set
Actual Time 7:27 AM CDT 7:03 PM CDT
Civil Twilight 6:56 AM CDT 7:34 PM CDT
Nautical Twilight 6:21 AM CDT 8:09 PM CDT
Astronomical Twilight 5:45 AM CDT 8:44 PM CDT
Moon 4:54 AM CDT (10/2) 5:45 PM CDT (10/2)
Length of Visible Light 12h 37m
Length of Day
11h 36m
Waning Crescent, 6% of the Moon is Illuminated
Oct 2
Waning Crescent
Oct 4
New
Oct 11
First Quarter
Oct 18
Full
Oct 26
Last Quarter

Hourly Weather History & Observations

Time (CDT) Temp. Windchill Dew Point Humidity Pressure Visibility Wind Dir Wind Speed Gust Speed Precip Events Conditions
12:14 AM 51.8 °F - 39.2 °F 62% 29.96 in 10.0 mi SSW 5.8 mph - N/A   Clear
12:35 AM 50.0 °F - 41.0 °F 71% 29.96 in 10.0 mi SSW 8.1 mph - N/A   Clear
12:55 AM 48.2 °F - 42.8 °F 82% 29.96 in 10.0 mi SSW 5.8 mph - N/A   Clear
1:15 AM 48.2 °F - 41.0 °F 76% 29.96 in 10.0 mi SSW 5.8 mph - N/A   Clear
1:35 AM 48.2 °F - 42.8 °F 82% 29.97 in 10.0 mi SSW 5.8 mph - N/A   Clear
1:54 AM 48.2 °F - 39.2 °F 71% 29.97 in 10.0 mi Calm Calm - N/A   Clear
2:15 AM 48.2 °F - 41.0 °F 76% 29.97 in 10.0 mi South 3.5 mph - N/A   Clear
2:35 AM 48.2 °F - 42.8 °F 82% 29.97 in 10.0 mi South 3.5 mph - N/A   Clear
2:54 AM 46.4 °F 44.3 °F 42.8 °F 87% 29.97 in 10.0 mi SSE 4.6 mph - N/A   Clear
3:15 AM 46.4 °F 43.5 °F 42.8 °F 87% 29.97 in 10.0 mi South 5.8 mph - N/A   Clear
3:35 AM 46.4 °F 43.5 °F 42.8 °F 87% 29.97 in 10.0 mi SSE 5.8 mph - N/A   Clear
3:54 AM 46.4 °F 42.9 °F 44.6 °F 93% 29.97 in 10.0 mi SSE 6.9 mph - N/A   Clear
4:15 AM 44.6 °F 41.4 °F 42.8 °F 93% 29.97 in 10.0 mi SSE 5.8 mph - N/A   Clear
4:35 AM 44.6 °F 40.7 °F 42.8 °F 93% 29.97 in 10.0 mi SSE 6.9 mph - N/A   Clear
4:54 AM 46.4 °F 42.4 °F 42.8 °F 87% 29.96 in 10.0 mi SSE 8.1 mph - N/A   Clear
5:15 AM 46.4 °F 42.9 °F 42.8 °F 87% 29.95 in 10.0 mi SSE 6.9 mph - N/A   Clear
5:34 AM 46.4 °F 42.4 °F 42.8 °F 87% 29.95 in 10.0 mi SSE 8.1 mph - N/A   Clear
5:55 AM 46.4 °F 42.9 °F 42.8 °F 87% 29.95 in 10.0 mi South 6.9 mph - N/A   Clear
6:14 AM 46.4 °F 42.9 °F 44.6 °F 93% 29.94 in 10.0 mi SSE 6.9 mph - N/A   Clear
6:34 AM 51.8 °F - 42.8 °F 71% 29.95 in 10.0 mi South 10.4 mph - N/A   Clear
6:55 AM 50.0 °F - 42.8 °F 76% 29.96 in 10.0 mi South 6.9 mph - N/A   Scattered Clouds
7:14 AM 48.2 °F - 44.6 °F 87% 29.97 in 10.0 mi SSW 9.2 mph - N/A   Mostly Cloudy
7:35 AM 50.0 °F - 44.6 °F 82% 29.97 in 10.0 mi SSW 5.8 mph - N/A   Scattered Clouds
7:55 AM 48.2 °F - 46.4 °F 93% 29.98 in 10.0 mi WSW 3.5 mph - N/A   Scattered Clouds
8:14 AM 51.8 °F - 44.6 °F 76% 29.97 in 10.0 mi South 5.8 mph - N/A   Mostly Cloudy
8:35 AM 50.0 °F - 46.4 °F 87% 29.98 in 10.0 mi SSW 4.6 mph - N/A Rain Light Rain
8:54 AM 50.0 °F - 48.2 °F 94% 30.00 in 10.0 mi WNW 3.5 mph - N/A   Mostly Cloudy
9:15 AM 51.8 °F - 46.4 °F 82% 30.00 in 10.0 mi North 4.6 mph - N/A Rain Light Rain
9:35 AM 53.6 °F - 46.4 °F 77% 30.00 in 10.0 mi Calm Calm - N/A   Scattered Clouds
9:54 AM 53.6 °F - 48.2 °F 82% 30.00 in 10.0 mi Calm Calm - N/A   Clear
10:15 AM 55.4 °F - 48.2 °F 77% 30.00 in 10.0 mi SSE 4.6 mph - N/A   Clear
10:35 AM 55.4 °F - 48.2 °F 77% 30.01 in 10.0 mi Calm Calm - N/A   Clear
10:54 AM 55.4 °F - 48.2 °F 77% 30.00 in 10.0 mi East 3.5 mph - N/A   Clear
11:15 AM 57.2 °F - 46.4 °F 67% 30.00 in 10.0 mi ESE 3.5 mph - N/A   Clear
11:35 AM 60.8 °F - 46.4 °F 59% 29.99 in 10.0 mi East 3.5 mph - N/A   Clear
11:54 AM 60.8 °F - 46.4 °F 59% 29.99 in 10.0 mi East 3.5 mph - N/A   Clear
12:15 PM 62.6 °F - 44.6 °F 52% 29.99 in 10.0 mi NE 3.5 mph - N/A   Clear
12:34 PM 62.6 °F - 44.6 °F 52% 29.99 in 10.0 mi Calm Calm - N/A   Scattered Clouds
12:54 PM 62.6 °F - 39.2 °F 42% 29.98 in 10.0 mi Calm Calm - N/A   Scattered Clouds
1:15 PM 64.4 °F - 46.4 °F 52% 29.96 in 10.0 mi NE 4.6 mph - N/A   Clear
1:34 PM 62.6 °F - 46.4 °F 55% 29.95 in 10.0 mi NNE 12.7 mph 17.3 mph N/A   Clear
1:54 PM 62.6 °F - 46.4 °F 55% 29.94 in 10.0 mi NNE 13.8 mph - N/A   Scattered Clouds
2:15 PM 62.6 °F - 42.8 °F 48% 29.94 in 10.0 mi NE 17.3 mph 20.7 mph N/A   Scattered Clouds
2:34 PM 62.6 °F - 42.8 °F 48% 29.94 in 10.0 mi NE 10.4 mph 17.3 mph N/A   Mostly Cloudy
2:54 PM 62.6 °F - 42.8 °F 48% 29.94 in 10.0 mi NE 12.7 mph 19.6 mph N/A   Mostly Cloudy
3:15 PM 62.6 °F - 42.8 °F 48% 29.94 in 10.0 mi NE 15.0 mph 19.6 mph N/A   Mostly Cloudy
3:35 PM 62.6 °F - 44.6 °F 52% 29.94 in 10.0 mi NE 15.0 mph 21.9 mph N/A   Mostly Cloudy
3:55 PM 62.6 °F - 44.6 °F 52% 29.95 in 10.0 mi NE 11.5 mph - N/A   Mostly Cloudy
4:14 PM 62.6 °F - 44.6 °F 52% 29.95 in 10.0 mi NE 11.5 mph - N/A   Scattered Clouds
4:35 PM 62.6 °F - 46.4 °F 55% 29.95 in 10.0 mi East 9.2 mph - N/A   Overcast
4:55 PM 62.6 °F - 46.4 °F 55% 29.95 in 10.0 mi ESE 6.9 mph - N/A   Overcast
5:14 PM 62.6 °F - 48.2 °F 59% 29.94 in 10.0 mi SE 6.9 mph - N/A   Overcast
5:35 PM 60.8 °F - 46.4 °F 59% 29.95 in 10.0 mi ESE 5.8 mph - N/A   Mostly Cloudy
5:55 PM 60.8 °F - 48.2 °F 63% 29.95 in 10.0 mi ESE 6.9 mph - N/A Rain Light Rain
6:14 PM 59.0 °F - 51.8 °F 77% 29.95 in 10.0 mi East 4.6 mph - N/A   Light Drizzle
6:35 PM 59.0 °F - 53.6 °F 82% 29.95 in 10.0 mi NNE 3.5 mph - N/A   Scattered Clouds
6:54 PM 57.2 °F - 51.8 °F 82% 29.95 in 10.0 mi ENE 6.9 mph - N/A   Scattered Clouds
7:15 PM 55.4 °F - 51.8 °F 88% 29.95 in 10.0 mi ENE 5.8 mph - N/A   Clear
7:34 PM 55.4 °F - 51.8 °F 88% 29.95 in 10.0 mi ENE 8.1 mph - N/A   Clear
7:54 PM 55.4 °F - 51.8 °F 88% 29.96 in 10.0 mi ENE 8.1 mph - N/A   Clear
8:15 PM 53.6 °F - 51.8 °F 94% 29.96 in 10.0 mi ENE 5.8 mph - N/A   Clear
8:35 PM 51.8 °F - 51.8 °F 100% 29.97 in 10.0 mi East 5.8 mph - N/A   Clear
8:54 PM 51.8 °F - 51.8 °F 100% 29.98 in 10.0 mi ENE 5.8 mph - N/A   Clear
9:15 PM 51.8 °F - 50.0 °F 94% 29.99 in 10.0 mi NE 3.5 mph - N/A   Clear
9:34 PM 50.0 °F - 50.0 °F 100% 29.98 in 10.0 mi ENE 4.6 mph - N/A   Clear
9:54 PM 50.0 °F - 48.2 °F 94% 29.99 in 10.0 mi NNE 5.8 mph - N/A   Clear
10:15 PM 48.2 °F - 48.2 °F 100% 29.99 in 10.0 mi Calm Calm - N/A   Clear
10:34 PM 50.0 °F - 50.0 °F 100% 29.99 in 10.0 mi East 3.5 mph - N/A   Clear
10:55 PM 46.4 °F - 46.4 °F 100% 29.98 in 10.0 mi Calm Calm - N/A   Clear
11:15 PM 46.4 °F 45.2 °F 46.4 °F 100% 29.98 in 10.0 mi ESE 3.5 mph - N/A   Clear
11:34 PM 48.2 °F - 48.2 °F 100% 29.98 in 10.0 mi Calm Calm - N/A   Clear
11:55 PM 44.6 °F 42.2 °F 44.6 °F 100% 29.99 in 10.0 mi North 4.6 mph - N/A   Clear